This is the latest recevied weather packets stored in our database for station/object VA3XLC. If no packets are shown the sender has not sent any weather packets the latest 10 day(s).
| Time | Temp. | Humidity | Pressure | Rain* | Wind** | Luminosity | Snow |
|---|---|---|---|---|---|---|---|
| 1777632040 | 2.78° C | 79% | 980.5 hPa | - | - | 16 W/m² | - |
| 1777631140 | 2.78° C | 78% | 980.9 hPa | - | - | 4 W/m² | - |
| 1777629939 | 2.78° C | 78% | 980.9 hPa | - | - | 0 W/m² | - |
| 1777629638 | 2.78° C | 78% | 980.9 hPa | - | - | 0 W/m² | - |
| 1777629338 | 2.78° C | 78% | 980.8 hPa | - | - | 0 W/m² | - |
| 1777629038 | 2.78° C | 79% | 980.9 hPa | - | - | 0 W/m² | - |
| 1777627237 | 2.78° C | 79% | 981 hPa | - | - | 0 W/m² | - |
| 1777626937 | 2.78° C | 79% | 981 hPa | - | - | 0 W/m² | - |
| 1777626336 | 2.78° C | 79% | 981.1 hPa | - | - | 0 W/m² | - |
| 1777625736 | 2.78° C | 78% | 981.1 hPa | - | - | 0 W/m² | - |
| 1777624214 | 2.22° C | 78% | 980.9 hPa | - | - | 0 W/m² | - |
| 1777623913 | 2.22° C | 78% | 980.9 hPa | - | - | 0 W/m² | - |
| 1777620289 | 2.22° C | 78% | 980.8 hPa | - | - | 0 W/m² | - |
| 1777614501 | 0.56° C | 83% | 981.2 hPa | - | - | 0 W/m² | - |
| 1777611497 | 0° C | 83% | 981.3 hPa | - | - | 0 W/m² | - |
| 1777610596 | 0.56° C | 81% | 981.5 hPa | - | - | 0 W/m² | - |
| 1777609373 | 0.56° C | 80% | 981.4 hPa | - | - | 0 W/m² | - |
| 1777609073 | 1.11° C | 79% | 981.4 hPa | - | - | 0 W/m² | - |
| 1777604547 | 1.67° C | 76% | 981.7 hPa | - | - | 0 W/m² | - |
| 1777604247 | 2.22° C | 75% | 981.8 hPa | - | - | 0 W/m² | - |
| 1777600623 | 3.89° C | 68% | 981.7 hPa | - | - | 0 W/m² | - |
| 1777596676 | 5.56° C | 58% | 981.3 hPa | - | - | 0 W/m² | - |
| 1777590224 | 7.22° C | 52% | 980.7 hPa | - | - | 80 W/m² | - |
| 1777587500 | 7.78° C | 48% | 980.5 hPa | - | - | 173 W/m² | - |
| 1777586599 | 7.78° C | 48% | 980.5 hPa | - | - | 235 W/m² | - |
* Rain since midnight (hover to see other rain measurements)
** Current wind speed in m/s (hover to see current wind gust speed)